119P/Parker-Hartley (2022)

Japanese version
Home page
Updated on September 18, 2021

---------------------------------------------------------------------

* Profile

* Pictures

* Orbital Elements

Epoch 2022 Aug. 9.0 TT = JDT 2459800.5                                          
T 2022 Aug. 11.97650 TT                                 Rudenko                 
q   2.3274711            (2000.0)            P               Q                  
n   0.13283980     Peri.  322.05789     +0.39176714     -0.91159502             
a   3.8040882      Node   104.56911     +0.87248981     +0.32512281             
e   0.3881658      Incl.    7.39386     +0.29202746     +0.25157440             
P   7.42                                                                        
From 1638 observations 1995 June 23-2021 July 12, mean residual 1".0.           
     Nongravitational parameters A1 = -0.47, A2 = +1.1311.                      

* Finding Charts

* Magnitudes Graph

        m1 = 7.0 + 5 log d + 18.0 log r

---------------------------------------------------------------------

The orbital elements are published on M.P.E.C. 2021-O56.
The charts are made with StellaNavigator Ver.10 (AstroArts).
The magnitudes graphs are made with Comet for Windows.

---------------------------------------------------------------------

Copyright(C) Seiichi Yoshida (comet@aerith.net). All rights reserved.